Location: Ahstedt
(52.2048°N, 10.1060°E)
Time: 22:07:11
(UTC+00:00)

Cosmos 2082 Rocket - Pass Details

Date: 15 April 2026
Orbit: 831 x 853 km, 71.0° (Epoch: 19 May)

Event Time Altitude Azimuth Distance (km) Brightness Sun altitude
Exits shadow 01:00:21 24° 137° (SE) 1,692 3.6 -24.4°
Maximum altitude 01:02:13 29° 105° (ESE) 1,513 3.6 -24.3°
Drops below altitude 10° 01:07:04 10° 47° (NE) 2,493 5.6 -23.9°
Sets 01:09:48 0° 37° (NE) 3,434 6.8 -23.7°
